Year,Month,Day,Hour,Minute,Value (Times are PST for temperature in C)
2013,04,22,00,00,4.70
2013,04,22,00,01,4.70
2013,04,22,00,02,4.70
2013,04,22,00,03,4.60
2013,04,22,00,04,4.60
2013,04,22,00,05,4.50
2013,04,22,00,06,4.50
2013,04,22,00,07,4.40
2013,04,22,00,08,4.40
2013,04,22,00,09,4.30
2013,04,22,00,10,4.30
2013,04,22,00,11,4.30
2013,04,22,00,12,4.30
2013,04,22,00,13,4.30
2013,04,22,00,14,4.40
2013,04,22,00,15,4.40
2013,04,22,00,16,4.50
2013,04,22,00,17,4.50
2013,04,22,00,18,4.60
2013,04,22,00,19,4.60
2013,04,22,00,20,4.70
2013,04,22,00,21,4.70
2013,04,22,00,22,4.70
2013,04,22,00,23,4.70
2013,04,22,00,24,4.70
2013,04,22,00,25,4.70
2013,04,22,00,26,4.70
2013,04,22,00,27,4.70
2013,04,22,00,28,4.70
2013,04,22,00,29,4.70
2013,04,22,00,30,4.70
2013,04,22,00,31,4.70
2013,04,22,00,32,4.70
2013,04,22,00,33,4.70
2013,04,22,00,34,4.70
2013,04,22,00,35,4.70
2013,04,22,00,36,4.70
2013,04,22,00,37,4.60
2013,04,22,00,38,4.60
2013,04,22,00,39,4.60
2013,04,22,00,40,4.60
2013,04,22,00,41,4.60
2013,04,22,00,42,4.60
2013,04,22,00,43,4.60
2013,04,22,00,44,4.60
2013,04,22,00,45,4.60
2013,04,22,00,46,4.60
2013,04,22,00,47,4.60
2013,04,22,00,48,4.50
2013,04,22,00,49,4.50
2013,04,22,00,50,4.50
2013,04,22,00,51,4.50
2013,04,22,00,52,4.40
2013,04,22,00,53,4.40
2013,04,22,00,54,4.50
2013,04,22,00,55,4.50
2013,04,22,00,56,4.50
2013,04,22,00,57,4.50
2013,04,22,00,58,4.50
2013,04,22,00,59,4.40
2013,04,22,01,00,4.40
2013,04,22,01,01,4.40
2013,04,22,01,02,4.40
2013,04,22,01,03,4.40
2013,04,22,01,04,4.40
2013,04,22,01,05,4.50
2013,04,22,01,06,4.50
2013,04,22,01,07,4.50
2013,04,22,01,08,4.50
2013,04,22,01,09,4.50
2013,04,22,01,10,4.50
2013,04,22,01,11,4.50
2013,04,22,01,12,4.50
2013,04,22,01,13,4.40
2013,04,22,01,14,4.40
2013,04,22,01,15,4.40
2013,04,22,01,16,4.40
2013,04,22,01,17,4.40
2013,04,22,01,18,4.40
2013,04,22,01,19,4.40
2013,04,22,01,20,4.40
2013,04,22,01,21,4.40
2013,04,22,01,22,4.40
2013,04,22,01,23,4.30
2013,04,22,01,24,4.30
2013,04,22,01,25,4.30
2013,04,22,01,26,4.30
2013,04,22,01,27,4.30
2013,04,22,01,28,4.30
2013,04,22,01,29,4.30
2013,04,22,01,30,4.30
2013,04,22,01,31,4.30
2013,04,22,01,32,4.30
2013,04,22,01,33,4.30
2013,04,22,01,34,4.30
2013,04,22,01,35,4.30
2013,04,22,01,36,4.30
2013,04,22,01,37,4.30
2013,04,22,01,38,4.30
2013,04,22,01,39,4.30
2013,04,22,01,40,4.20
2013,04,22,01,41,4.20
2013,04,22,01,42,4.20
2013,04,22,01,43,4.20
2013,04,22,01,44,4.20
2013,04,22,01,45,4.10
2013,04,22,01,46,4.10
2013,04,22,01,47,4.10
2013,04,22,01,48,4.10
2013,04,22,01,49,4.00
2013,04,22,01,50,4.00
2013,04,22,01,51,4.00
2013,04,22,01,52,3.90
2013,04,22,01,53,3.90
2013,04,22,01,54,3.90
2013,04,22,01,55,3.90
2013,04,22,01,56,3.90
2013,04,22,01,57,3.90
2013,04,22,01,58,3.90
2013,04,22,01,59,3.90
2013,04,22,02,00,4.00
2013,04,22,02,01,4.00
2013,04,22,02,02,4.00
2013,04,22,02,03,4.00
2013,04,22,02,04,4.00
2013,04,22,02,05,4.00
2013,04,22,02,06,4.00
2013,04,22,02,07,4.00
2013,04,22,02,08,3.90
2013,04,22,02,09,3.90
2013,04,22,02,10,3.90
2013,04,22,02,11,3.90
2013,04,22,02,12,3.90
2013,04,22,02,13,3.80
2013,04,22,02,14,3.80
2013,04,22,02,15,3.80
2013,04,22,02,16,3.80
2013,04,22,02,17,3.70
2013,04,22,02,18,3.70
2013,04,22,02,19,3.70
2013,04,22,02,20,3.70
2013,04,22,02,21,3.70
2013,04,22,02,22,3.70
2013,04,22,02,23,3.60
2013,04,22,02,24,3.60
2013,04,22,02,25,3.60
2013,04,22,02,26,3.50
2013,04,22,02,27,3.50
2013,04,22,02,28,3.40
2013,04,22,02,29,3.40
2013,04,22,02,30,3.40
2013,04,22,02,31,3.40
2013,04,22,02,32,3.40
2013,04,22,02,33,3.40
2013,04,22,02,34,3.40
2013,04,22,02,35,3.40
2013,04,22,02,36,3.40
2013,04,22,02,37,3.40
2013,04,22,02,38,3.50
2013,04,22,02,39,3.50
2013,04,22,02,40,3.60
2013,04,22,02,41,3.60
2013,04,22,02,42,3.60
2013,04,22,02,43,3.60
2013,04,22,02,44,3.60
2013,04,22,02,45,3.60
2013,04,22,02,46,3.50
2013,04,22,02,47,3.50
2013,04,22,02,48,3.50
2013,04,22,02,49,3.40
2013,04,22,02,50,3.40
2013,04,22,02,51,3.40
2013,04,22,02,52,3.40
2013,04,22,02,53,3.40
2013,04,22,02,54,3.40
2013,04,22,02,55,3.40
2013,04,22,02,56,3.40
2013,04,22,02,57,3.40
2013,04,22,02,58,3.40
2013,04,22,02,59,3.40
2013,04,22,03,00,3.40
2013,04,22,03,01,3.40
2013,04,22,03,02,3.50
2013,04,22,03,03,3.50
2013,04,22,03,04,3.50
2013,04,22,03,05,3.50
2013,04,22,03,06,3.50
2013,04,22,03,07,3.40
2013,04,22,03,08,3.40
2013,04,22,03,09,3.40
2013,04,22,03,10,3.40
2013,04,22,03,11,3.40
2013,04,22,03,12,3.40
2013,04,22,03,13,3.30
2013,04,22,03,14,3.30
2013,04,22,03,15,3.30
2013,04,22,03,16,3.30
2013,04,22,03,17,3.30
2013,04,22,03,18,3.30
2013,04,22,03,19,3.30
2013,04,22,03,20,3.30
2013,04,22,03,21,3.30
2013,04,22,03,22,3.30
2013,04,22,03,23,3.30
2013,04,22,03,24,3.20
2013,04,22,03,25,3.20
2013,04,22,03,26,3.20
2013,04,22,03,27,3.20
2013,04,22,03,28,3.20
2013,04,22,03,29,3.10
2013,04,22,03,30,3.10
2013,04,22,03,31,3.10
2013,04,22,03,32,3.10
2013,04,22,03,33,3.10
2013,04,22,03,34,3.10
2013,04,22,03,35,3.10
2013,04,22,03,36,3.10
2013,04,22,03,37,3.10
2013,04,22,03,38,3.10
2013,04,22,03,39,3.10
2013,04,22,03,40,3.10
2013,04,22,03,41,3.10
2013,04,22,03,42,3.10
2013,04,22,03,43,3.10
2013,04,22,03,44,3.10
2013,04,22,03,45,3.10
2013,04,22,03,46,3.10
2013,04,22,03,47,3.10
2013,04,22,03,48,3.10
2013,04,22,03,49,3.10
2013,04,22,03,50,3.10
2013,04,22,03,51,3.10
2013,04,22,03,52,3.10
2013,04,22,03,53,3.10
2013,04,22,03,54,3.10
2013,04,22,03,55,3.10
2013,04,22,03,56,3.10
2013,04,22,03,57,3.10
2013,04,22,03,58,3.10
2013,04,22,03,59,3.10
2013,04,22,04,00,3.10
2013,04,22,04,01,3.10
2013,04,22,04,02,3.10
2013,04,22,04,03,3.10
2013,04,22,04,04,3.10
2013,04,22,04,05,3.10
2013,04,22,04,06,3.10
2013,04,22,04,07,3.10
2013,04,22,04,08,3.20
2013,04,22,04,09,3.20
2013,04,22,04,10,3.20
2013,04,22,04,11,3.20
2013,04,22,04,12,3.20
2013,04,22,04,13,3.20
2013,04,22,04,14,3.20
2013,04,22,04,15,3.20
2013,04,22,04,16,3.20
2013,04,22,04,17,3.20
2013,04,22,04,18,3.10
2013,04,22,04,19,3.10
2013,04,22,04,20,3.10
2013,04,22,04,21,3.10
2013,04,22,04,22,3.00
2013,04,22,04,23,3.00
2013,04,22,04,24,3.00
2013,04,22,04,25,2.90
2013,04,22,04,26,2.90
2013,04,22,04,27,2.90
2013,04,22,04,28,2.90
2013,04,22,04,29,2.90
2013,04,22,04,30,2.80
2013,04,22,04,31,2.80
2013,04,22,04,32,2.80
2013,04,22,04,33,2.80
2013,04,22,04,34,2.80
2013,04,22,04,35,2.90
2013,04,22,04,36,2.90
2013,04,22,04,37,2.90
2013,04,22,04,38,2.90
2013,04,22,04,39,2.80
2013,04,22,04,40,2.80
2013,04,22,04,41,2.80
2013,04,22,04,42,2.80
2013,04,22,04,43,2.80
2013,04,22,04,44,2.80
2013,04,22,04,45,2.80
2013,04,22,04,46,2.80
2013,04,22,04,47,2.80
2013,04,22,04,48,2.80
2013,04,22,04,49,2.80
2013,04,22,04,50,2.90
2013,04,22,04,51,2.90
2013,04,22,04,52,2.90
2013,04,22,04,53,2.90
2013,04,22,04,54,2.90
2013,04,22,04,55,2.90
2013,04,22,04,56,2.90
2013,04,22,04,57,2.90
2013,04,22,04,58,2.90
2013,04,22,04,59,2.90
2013,04,22,05,00,2.90
2013,04,22,05,01,2.90
2013,04,22,05,02,2.90
2013,04,22,05,03,2.90
2013,04,22,05,04,2.90
2013,04,22,05,05,2.90
2013,04,22,05,06,2.90
2013,04,22,05,07,2.90
2013,04,22,05,08,2.90
2013,04,22,05,09,2.90
2013,04,22,05,10,2.90
2013,04,22,05,11,2.90
2013,04,22,05,12,2.90
2013,04,22,05,13,2.90
2013,04,22,05,14,2.90
2013,04,22,05,15,2.90
2013,04,22,05,16,2.90
2013,04,22,05,17,2.90
2013,04,22,05,18,2.90
2013,04,22,05,19,2.90
2013,04,22,05,20,2.90
2013,04,22,05,21,2.90
2013,04,22,05,22,2.90
2013,04,22,05,23,2.80
2013,04,22,05,24,2.80
2013,04,22,05,25,2.80
2013,04,22,05,26,2.90
2013,04,22,05,27,2.90
2013,04,22,05,28,2.90
2013,04,22,05,29,2.90
2013,04,22,05,30,2.80
2013,04,22,05,31,2.80
2013,04,22,05,32,2.80
2013,04,22,05,33,2.80
2013,04,22,05,34,2.70
2013,04,22,05,35,2.70
2013,04,22,05,36,2.70
2013,04,22,05,37,2.70
2013,04,22,05,38,2.70
2013,04,22,05,39,2.70
2013,04,22,05,40,2.80
2013,04,22,05,41,2.80
2013,04,22,05,42,2.90
2013,04,22,05,43,2.90
2013,04,22,05,44,2.90
2013,04,22,05,45,3.00
2013,04,22,05,46,3.00
2013,04,22,05,47,3.00
2013,04,22,05,48,3.00
2013,04,22,05,49,3.00
2013,04,22,05,50,3.00
2013,04,22,05,51,3.00
2013,04,22,05,52,3.00
2013,04,22,05,53,3.00
2013,04,22,05,54,3.00
2013,04,22,05,55,3.00
2013,04,22,05,56,3.10
2013,04,22,05,57,3.10
2013,04,22,05,58,3.10
2013,04,22,05,59,3.10
2013,04,22,06,00,3.10
2013,04,22,06,01,3.10
2013,04,22,06,02,3.10
2013,04,22,06,03,3.10
2013,04,22,06,04,3.10
2013,04,22,06,05,3.10
2013,04,22,06,06,3.10
2013,04,22,06,07,3.00
2013,04,22,06,08,3.00
2013,04,22,06,09,3.00
2013,04,22,06,10,3.00
2013,04,22,06,11,3.00
2013,04,22,06,12,3.00
2013,04,22,06,13,3.00
2013,04,22,06,14,3.00
2013,04,22,06,15,3.00
2013,04,22,06,16,3.00
2013,04,22,06,17,3.00
2013,04,22,06,18,2.90
2013,04,22,06,19,2.90
2013,04,22,06,20,2.90
2013,04,22,06,21,2.90
2013,04,22,06,22,2.90
2013,04,22,06,23,2.90
2013,04,22,06,24,2.90
2013,04,22,06,25,2.90
2013,04,22,06,26,2.90
2013,04,22,06,27,2.90
2013,04,22,06,28,2.90
2013,04,22,06,29,2.90
2013,04,22,06,30,2.90
2013,04,22,06,31,2.90
2013,04,22,06,32,2.90
2013,04,22,06,33,2.80
2013,04,22,06,34,2.80
2013,04,22,06,35,2.80
2013,04,22,06,36,2.80
2013,04,22,06,37,2.80
2013,04,22,06,38,2.80
2013,04,22,06,39,2.80
2013,04,22,06,40,2.90
2013,04,22,06,41,2.90
2013,04,22,06,42,2.90
2013,04,22,06,43,2.90
2013,04,22,06,44,2.90
2013,04,22,06,45,2.90
2013,04,22,06,46,3.00
2013,04,22,06,47,3.00
2013,04,22,06,48,3.00
2013,04,22,06,49,3.00
2013,04,22,06,50,3.00
2013,04,22,06,51,3.00
2013,04,22,06,52,3.00
2013,04,22,06,53,3.00
2013,04,22,06,54,3.00
2013,04,22,06,55,3.00
2013,04,22,06,56,3.10
2013,04,22,06,57,3.10
2013,04,22,06,58,3.10
2013,04,22,06,59,3.10
2013,04,22,07,00,3.10
2013,04,22,07,01,3.10
2013,04,22,07,02,3.10
2013,04,22,07,03,3.10
2013,04,22,07,04,3.10
2013,04,22,07,05,3.10
2013,04,22,07,06,3.10
2013,04,22,07,07,3.10
2013,04,22,07,08,3.00
2013,04,22,07,09,3.00
2013,04,22,07,10,3.00
2013,04,22,07,11,3.00
2013,04,22,07,12,3.00
2013,04,22,07,13,3.00
2013,04,22,07,14,3.00
2013,04,22,07,15,3.00
2013,04,22,07,16,3.00
2013,04,22,07,17,2.90
2013,04,22,07,18,2.90
2013,04,22,07,19,2.90
2013,04,22,07,20,2.90
2013,04,22,07,21,2.90
2013,04,22,07,22,2.90
2013,04,22,07,23,2.90
2013,04,22,07,24,2.90
2013,04,22,07,25,2.90
2013,04,22,07,26,2.90
2013,04,22,07,27,2.90
2013,04,22,07,28,2.90
2013,04,22,07,29,2.90
2013,04,22,07,30,2.90
2013,04,22,07,31,2.90
2013,04,22,07,32,2.90
2013,04,22,07,33,2.90
2013,04,22,07,34,2.90
2013,04,22,07,35,2.90
2013,04,22,07,36,2.90
2013,04,22,07,37,3.00
2013,04,22,07,38,3.00
2013,04,22,07,39,3.00
2013,04,22,07,40,3.00
2013,04,22,07,41,3.00
2013,04,22,07,42,3.00
2013,04,22,07,43,3.10
2013,04,22,07,44,3.10
2013,04,22,07,45,3.10
2013,04,22,07,46,3.20
2013,04,22,07,47,3.20
2013,04,22,07,48,3.20
2013,04,22,07,49,3.20
2013,04,22,07,50,3.20
2013,04,22,07,51,3.30
2013,04,22,07,52,3.30
2013,04,22,07,53,3.30
2013,04,22,07,54,3.30
2013,04,22,07,55,3.30
2013,04,22,07,56,3.40
2013,04,22,07,57,3.40
2013,04,22,07,58,3.50
2013,04,22,07,59,3.50
2013,04,22,08,00,3.60
2013,04,22,08,01,3.60
2013,04,22,08,02,3.60
2013,04,22,08,03,3.60
2013,04,22,08,04,3.70
2013,04,22,08,05,3.70
2013,04,22,08,06,3.80
2013,04,22,08,07,3.80
2013,04,22,08,08,3.90
2013,04,22,08,09,3.90
2013,04,22,08,10,4.00
2013,04,22,08,11,4.10
2013,04,22,08,12,4.20
2013,04,22,08,13,4.20
2013,04,22,08,14,4.30
2013,04,22,08,15,4.30
2013,04,22,08,16,4.40
2013,04,22,08,17,4.50
2013,04,22,08,18,4.50
2013,04,22,08,19,4.60
2013,04,22,08,20,4.60
2013,04,22,08,21,4.70
2013,04,22,08,22,4.80
2013,04,22,08,23,4.90
2013,04,22,08,24,4.90
2013,04,22,08,25,5.00
2013,04,22,08,26,5.10
2013,04,22,08,27,5.20
2013,04,22,08,28,5.30
2013,04,22,08,29,5.40
2013,04,22,08,30,5.50
2013,04,22,08,31,5.60
2013,04,22,08,32,5.70
2013,04,22,08,33,5.80
2013,04,22,08,34,5.90
2013,04,22,08,35,6.00
2013,04,22,08,36,6.00
2013,04,22,08,37,6.10
2013,04,22,08,38,6.20
2013,04,22,08,39,6.20
2013,04,22,08,40,6.30
2013,04,22,08,41,6.40
2013,04,22,08,42,6.50
2013,04,22,08,43,6.60
2013,04,22,08,44,6.70
2013,04,22,08,45,6.70
2013,04,22,08,46,6.80
2013,04,22,08,47,6.80
2013,04,22,08,48,6.90
2013,04,22,08,49,7.00
2013,04,22,08,50,7.10
2013,04,22,08,51,7.20
2013,04,22,08,52,7.30
2013,04,22,08,53,7.30
2013,04,22,08,54,7.50
2013,04,22,08,55,7.60
2013,04,22,08,56,7.70
2013,04,22,08,57,7.80
2013,04,22,08,58,7.80
2013,04,22,08,59,7.90
2013,04,22,09,00,7.90
2013,04,22,09,01,7.90
2013,04,22,09,02,8.00
2013,04,22,09,03,8.00
2013,04,22,09,04,8.00
2013,04,22,09,05,8.00
2013,04,22,09,06,8.00
2013,04,22,09,07,8.10
2013,04,22,09,08,8.10
2013,04,22,09,09,8.10
2013,04,22,09,10,8.10
2013,04,22,09,11,8.20
2013,04,22,09,12,8.30
2013,04,22,09,13,8.30
2013,04,22,09,14,8.40
2013,04,22,09,15,8.40
2013,04,22,09,16,8.50
2013,04,22,09,17,8.60
2013,04,22,09,18,8.70
2013,04,22,09,19,8.70
2013,04,22,09,20,8.80
2013,04,22,09,21,8.80
2013,04,22,09,22,8.80
2013,04,22,09,23,8.80
2013,04,22,09,24,8.80
2013,04,22,09,25,8.80
2013,04,22,09,26,8.90
2013,04,22,09,27,8.90
2013,04,22,09,28,9.00
2013,04,22,09,29,9.00
2013,04,22,09,30,9.10
2013,04,22,09,31,9.20
2013,04,22,09,32,9.30
2013,04,22,09,33,9.40
2013,04,22,09,34,9.40
2013,04,22,09,35,9.50
2013,04,22,09,36,9.50
2013,04,22,09,37,9.60
2013,04,22,09,38,9.70
2013,04,22,09,39,9.80
2013,04,22,09,40,9.70
2013,04,22,09,41,9.70
2013,04,22,09,42,9.80
2013,04,22,09,43,9.80
2013,04,22,09,44,9.80
2013,04,22,09,45,9.80
2013,04,22,09,46,9.80
2013,04,22,09,47,9.80
2013,04,22,09,48,9.80
2013,04,22,09,49,9.90
2013,04,22,09,50,9.90
2013,04,22,09,51,9.90
2013,04,22,09,52,10.00
2013,04,22,09,53,10.00
2013,04,22,09,54,10.10
2013,04,22,09,55,10.10
2013,04,22,09,56,10.10
2013,04,22,09,57,10.10
2013,04,22,09,58,10.20
2013,04,22,09,59,10.20
2013,04,22,10,00,10.20
2013,04,22,10,01,10.20
2013,04,22,10,02,10.20
2013,04,22,10,03,10.30
2013,04,22,10,04,10.30
2013,04,22,10,05,10.40
2013,04,22,10,06,10.50
2013,04,22,10,07,10.60
2013,04,22,10,08,10.60
2013,04,22,10,09,10.50
2013,04,22,10,10,10.50
2013,04,22,10,11,10.40
2013,04,22,10,12,10.30
2013,04,22,10,13,10.30
2013,04,22,10,14,10.30
2013,04,22,10,15,10.30
2013,04,22,10,16,10.30
2013,04,22,10,17,10.30
2013,04,22,10,18,10.30
2013,04,22,10,19,10.30
2013,04,22,10,20,10.30
2013,04,22,10,21,10.30
2013,04,22,10,22,10.30
2013,04,22,10,23,10.40
2013,04,22,10,24,10.50
2013,04,22,10,25,10.50
2013,04,22,10,26,10.60
2013,04,22,10,27,10.60
2013,04,22,10,28,10.60
2013,04,22,10,29,10.60
2013,04,22,10,30,10.60
2013,04,22,10,31,10.60
2013,04,22,10,32,10.60
2013,04,22,10,33,10.60
2013,04,22,10,34,10.60
2013,04,22,10,35,10.60
2013,04,22,10,36,10.60
2013,04,22,10,37,10.60
2013,04,22,10,38,10.70
2013,04,22,10,39,10.70
2013,04,22,10,40,10.70
2013,04,22,10,41,10.70
2013,04,22,10,42,10.70
2013,04,22,10,43,10.70
2013,04,22,10,44,10.70
2013,04,22,10,45,10.80
2013,04,22,10,46,10.80
2013,04,22,10,47,10.80
2013,04,22,10,48,10.80
2013,04,22,10,49,10.80
2013,04,22,10,50,10.80
2013,04,22,10,51,10.80
2013,04,22,10,52,10.90
2013,04,22,10,53,11.00
2013,04,22,10,54,11.10
2013,04,22,10,55,11.20
2013,04,22,10,56,11.20
2013,04,22,10,57,11.20
2013,04,22,10,58,11.10
2013,04,22,10,59,11.10
2013,04,22,11,00,11.00
2013,04,22,11,01,11.00
2013,04,22,11,02,10.90
2013,04,22,11,03,10.90
2013,04,22,11,04,11.00
2013,04,22,11,05,11.10
2013,04,22,11,06,11.20
2013,04,22,11,07,11.30
2013,04,22,11,08,11.30
2013,04,22,11,09,11.30
2013,04,22,11,10,11.20
2013,04,22,11,11,11.10
2013,04,22,11,12,11.00
2013,04,22,11,13,11.10
2013,04,22,11,14,11.10
2013,04,22,11,15,11.20
2013,04,22,11,16,11.20
2013,04,22,11,17,11.30
2013,04,22,11,18,11.30
2013,04,22,11,19,11.40
2013,04,22,11,20,11.40
2013,04,22,11,21,11.40
2013,04,22,11,22,11.30
2013,04,22,11,23,11.30
2013,04,22,11,24,11.20
2013,04,22,11,25,11.20
2013,04,22,11,26,11.20
2013,04,22,11,27,11.20
2013,04,22,11,28,11.30
2013,04,22,11,29,11.30
2013,04,22,11,30,11.40
2013,04,22,11,31,11.50
2013,04,22,11,32,11.50
2013,04,22,11,33,11.60
2013,04,22,11,34,11.60
2013,04,22,11,35,11.60
2013,04,22,11,36,11.60
2013,04,22,11,37,11.60
2013,04,22,11,38,11.70
2013,04,22,11,39,11.70
2013,04,22,11,40,11.80
2013,04,22,11,41,11.80
2013,04,22,11,42,11.80
2013,04,22,11,43,11.80
2013,04,22,11,44,11.80
2013,04,22,11,45,11.80
2013,04,22,11,46,11.80
2013,04,22,11,47,11.90
2013,04,22,11,48,12.00
2013,04,22,11,49,12.20
2013,04,22,11,50,12.20
2013,04,22,11,51,12.30
2013,04,22,11,52,12.20
2013,04,22,11,53,12.20
2013,04,22,11,54,12.30
2013,04,22,11,55,12.30
2013,04,22,11,56,12.30
2013,04,22,11,57,12.30
2013,04,22,11,58,12.30
2013,04,22,11,59,12.30
2013,04,22,12,00,12.40
2013,04,22,12,01,12.40
2013,04,22,12,02,12.40
2013,04,22,12,03,12.50
2013,04,22,12,04,12.50
2013,04,22,12,05,12.50
2013,04,22,12,06,12.50
2013,04,22,12,07,12.50
2013,04,22,12,08,12.50
2013,04,22,12,09,12.40
2013,04,22,12,10,12.40
2013,04,22,12,11,12.40
2013,04,22,12,12,12.40
2013,04,22,12,13,12.40
2013,04,22,12,14,12.40
2013,04,22,12,15,12.40
2013,04,22,12,16,12.40
2013,04,22,12,17,12.40
2013,04,22,12,18,12.40
2013,04,22,12,19,12.40
2013,04,22,12,20,12.30
2013,04,22,12,21,12.30
2013,04,22,12,22,12.30
2013,04,22,12,23,12.30
2013,04,22,12,24,12.30
2013,04,22,12,25,12.20
2013,04,22,12,26,12.20
2013,04,22,12,27,12.10
2013,04,22,12,28,12.10
2013,04,22,12,29,12.10
2013,04,22,12,30,12.20
2013,04,22,12,31,12.30
2013,04,22,12,32,12.30
2013,04,22,12,33,12.40
2013,04,22,12,34,12.40
2013,04,22,12,35,12.50
2013,04,22,12,36,12.50
2013,04,22,12,37,12.50
2013,04,22,12,38,12.50
2013,04,22,12,39,12.50
2013,04,22,12,40,12.40
2013,04,22,12,41,12.40
2013,04,22,12,42,12.40
2013,04,22,12,43,12.40
2013,04,22,12,44,12.50
2013,04,22,12,45,12.50
2013,04,22,12,46,12.50
2013,04,22,12,47,12.50
2013,04,22,12,48,12.50
2013,04,22,12,49,12.40
2013,04,22,12,50,12.40
2013,04,22,12,51,12.40
2013,04,22,12,52,12.30
2013,04,22,12,53,12.30
2013,04,22,12,54,12.30
2013,04,22,12,55,12.40
2013,04,22,12,56,12.40
2013,04,22,12,57,12.40
2013,04,22,12,58,12.30
2013,04,22,12,59,12.30
2013,04,22,13,00,12.20
2013,04,22,13,01,12.20
2013,04,22,13,02,12.30
2013,04,22,13,03,12.30
2013,04,22,13,04,12.30
2013,04,22,13,05,12.30
2013,04,22,13,06,12.30
2013,04,22,13,07,12.30
2013,04,22,13,08,12.20
2013,04,22,13,09,12.20
2013,04,22,13,10,12.10
2013,04,22,13,11,12.10
2013,04,22,13,12,12.20
2013,04,22,13,13,12.30
2013,04,22,13,14,12.30
2013,04,22,13,15,12.40
2013,04,22,13,16,12.40
2013,04,22,13,17,12.50
2013,04,22,13,18,12.50
2013,04,22,13,19,12.50
2013,04,22,13,20,12.50
2013,04,22,13,21,12.50
2013,04,22,13,22,12.60
2013,04,22,13,23,12.50
2013,04,22,13,24,12.40
2013,04,22,13,25,12.30
2013,04,22,13,26,12.20
2013,04,22,13,27,12.20
2013,04,22,13,28,12.20
2013,04,22,13,29,12.20
2013,04,22,13,30,12.20
2013,04,22,13,31,12.20
2013,04,22,13,32,12.10
2013,04,22,13,33,12.10
2013,04,22,13,34,12.10
2013,04,22,13,35,12.20
2013,04,22,13,36,12.20
2013,04,22,13,37,12.20
2013,04,22,13,38,12.20
2013,04,22,13,39,12.20
2013,04,22,13,40,12.10
2013,04,22,13,41,12.10
2013,04,22,13,42,12.10
2013,04,22,13,43,12.10
2013,04,22,13,44,12.00
2013,04,22,13,45,12.00
2013,04,22,13,46,12.00
2013,04,22,13,47,12.00
2013,04,22,13,48,12.00
2013,04,22,13,49,12.00
2013,04,22,13,50,12.00
2013,04,22,13,51,12.00
2013,04,22,13,52,12.10
2013,04,22,13,53,12.10
2013,04,22,13,54,12.20
2013,04,22,13,55,12.30
2013,04,22,13,56,12.30
2013,04,22,13,57,12.20
2013,04,22,13,58,12.30
2013,04,22,13,59,12.30
2013,04,22,14,00,12.50
2013,04,22,14,01,12.60
2013,04,22,14,02,12.60
2013,04,22,14,03,12.50
2013,04,22,14,04,12.60
2013,04,22,14,05,12.60
2013,04,22,14,06,12.50
2013,04,22,14,07,12.50
2013,04,22,14,08,12.40
2013,04,22,14,09,12.30
2013,04,22,14,10,12.40
2013,04,22,14,11,12.40
2013,04,22,14,12,12.40
2013,04,22,14,13,12.50
2013,04,22,14,14,12.50
2013,04,22,14,15,12.60
2013,04,22,14,16,12.60
2013,04,22,14,17,12.60
2013,04,22,14,18,12.70
2013,04,22,14,19,12.70
2013,04,22,14,20,12.70
2013,04,22,14,21,12.70
2013,04,22,14,22,12.50
2013,04,22,14,23,12.40
2013,04,22,14,24,12.30
2013,04,22,14,25,12.30
2013,04,22,14,26,12.30
2013,04,22,14,27,12.20
2013,04,22,14,28,12.20
2013,04,22,14,29,12.20
2013,04,22,14,30,12.30
2013,04,22,14,31,12.30
2013,04,22,14,32,12.40
2013,04,22,14,33,12.30
2013,04,22,14,34,12.30
2013,04,22,14,35,12.30
2013,04,22,14,36,12.30
2013,04,22,14,37,12.20
2013,04,22,14,38,12.20
2013,04,22,14,39,12.20
2013,04,22,14,40,12.10
2013,04,22,14,41,12.10
2013,04,22,14,42,12.10
2013,04,22,14,43,12.10
2013,04,22,14,44,12.20
2013,04,22,14,45,12.20
2013,04,22,14,46,12.20
2013,04,22,14,47,12.20
2013,04,22,14,48,12.10
2013,04,22,14,49,12.10
2013,04,22,14,50,12.10
2013,04,22,14,51,12.10
2013,04,22,14,52,12.20
2013,04,22,14,53,12.30
2013,04,22,14,54,12.30
2013,04,22,14,55,12.30
2013,04,22,14,56,12.30
2013,04,22,14,57,12.20
2013,04,22,14,58,12.20
2013,04,22,14,59,12.20
2013,04,22,15,00,12.30
2013,04,22,15,01,12.20
2013,04,22,15,02,12.20
2013,04,22,15,03,12.20
2013,04,22,15,04,12.10
2013,04,22,15,05,12.10
2013,04,22,15,06,12.00
2013,04,22,15,07,12.00
2013,04,22,15,08,12.00
2013,04,22,15,09,12.10
2013,04,22,15,10,12.10
2013,04,22,15,11,12.00
2013,04,22,15,12,12.10
2013,04,22,15,13,12.10
2013,04,22,15,14,12.10
2013,04,22,15,15,12.10
2013,04,22,15,16,12.10
2013,04,22,15,17,12.10
2013,04,22,15,18,12.20
2013,04,22,15,19,12.10
2013,04,22,15,20,12.20
2013,04,22,15,21,12.20
2013,04,22,15,22,12.20
2013,04,22,15,23,12.20
2013,04,22,15,24,12.20
2013,04,22,15,25,12.20
2013,04,22,15,26,12.10
2013,04,22,15,27,12.10
2013,04,22,15,28,12.10
2013,04,22,15,29,12.20
2013,04,22,15,30,12.20
2013,04,22,15,31,12.20
2013,04,22,15,32,12.10
2013,04,22,15,33,12.10
2013,04,22,15,34,12.10
2013,04,22,15,35,12.20
2013,04,22,15,36,12.20
2013,04,22,15,37,12.10
2013,04,22,15,38,12.10
2013,04,22,15,39,12.10
2013,04,22,15,40,12.10
2013,04,22,15,41,12.10
2013,04,22,15,42,12.10
2013,04,22,15,43,12.00
2013,04,22,15,44,12.00
2013,04,22,15,45,11.90
2013,04,22,15,46,11.90
2013,04,22,15,47,11.90
2013,04,22,15,48,11.80
2013,04,22,15,49,11.90
2013,04,22,15,50,11.90
2013,04,22,15,51,12.00
2013,04,22,15,52,12.00
2013,04,22,15,53,12.00
2013,04,22,15,54,12.00
2013,04,22,15,55,12.00
2013,04,22,15,56,12.10
2013,04,22,15,57,12.00
2013,04,22,15,58,12.00
2013,04,22,15,59,12.00
2013,04,22,16,00,11.90
2013,04,22,16,01,11.80
2013,04,22,16,02,11.70
2013,04,22,16,03,11.60
2013,04,22,16,04,11.60
2013,04,22,16,05,11.50
2013,04,22,16,06,11.50
2013,04,22,16,07,11.40
2013,04,22,16,08,11.40
2013,04,22,16,09,11.30
2013,04,22,16,10,11.30
2013,04,22,16,11,11.30
2013,04,22,16,12,11.30
2013,04,22,16,13,11.30
2013,04,22,16,14,11.40
2013,04,22,16,15,11.50
2013,04,22,16,16,11.60
2013,04,22,16,17,11.70
2013,04,22,16,18,11.80
2013,04,22,16,19,11.80
2013,04,22,16,20,11.70
2013,04,22,16,21,11.60
2013,04,22,16,22,11.60
2013,04,22,16,23,11.60
2013,04,22,16,24,11.50
2013,04,22,16,25,11.50
2013,04,22,16,26,11.60
2013,04,22,16,27,11.60
2013,04,22,16,28,11.60
2013,04,22,16,29,11.50
2013,04,22,16,30,11.50
2013,04,22,16,31,11.60
2013,04,22,16,32,11.60
2013,04,22,16,33,11.60
2013,04,22,16,34,11.60
2013,04,22,16,35,11.60
2013,04,22,16,36,11.70
2013,04,22,16,37,11.70
2013,04,22,16,38,11.50
2013,04,22,16,39,11.40
2013,04,22,16,40,11.40
2013,04,22,16,41,11.40
2013,04,22,16,42,11.50
2013,04,22,16,43,11.50
2013,04,22,16,44,11.50
2013,04,22,16,45,11.60
2013,04,22,16,46,11.60
2013,04,22,16,47,11.70
2013,04,22,16,48,11.70
2013,04,22,16,49,11.70
2013,04,22,16,50,11.70
2013,04,22,16,51,11.70
2013,04,22,16,52,11.70
2013,04,22,16,53,11.70
2013,04,22,16,54,11.70
2013,04,22,16,55,11.70
2013,04,22,16,56,11.70
2013,04,22,16,57,11.70
2013,04,22,16,58,11.60
2013,04,22,16,59,11.60
2013,04,22,17,00,11.50
2013,04,22,17,01,11.50
2013,04,22,17,02,11.50
2013,04,22,17,03,11.60
2013,04,22,17,04,11.60
2013,04,22,17,05,11.50
2013,04,22,17,06,11.50
2013,04,22,17,07,11.60
2013,04,22,17,08,11.60
2013,04,22,17,09,11.70
2013,04,22,17,10,11.80
2013,04,22,17,11,12.00
2013,04,22,17,12,12.00
2013,04,22,17,13,11.90
2013,04,22,17,14,11.90
2013,04,22,17,15,12.00
2013,04,22,17,16,12.00
2013,04,22,17,17,12.00
2013,04,22,17,18,12.10
2013,04,22,17,19,12.10
2013,04,22,17,20,12.00
2013,04,22,17,21,11.90
2013,04,22,17,22,11.90
2013,04,22,17,23,11.80
2013,04,22,17,24,11.90
2013,04,22,17,25,11.90
2013,04,22,17,26,12.00
2013,04,22,17,27,12.10
2013,04,22,17,28,12.10
2013,04,22,17,29,12.10
2013,04,22,17,30,12.00
2013,04,22,17,31,12.00
2013,04,22,17,32,12.10
2013,04,22,17,33,12.10
2013,04,22,17,34,12.20
2013,04,22,17,35,12.20
2013,04,22,17,36,12.20
2013,04,22,17,37,12.20
2013,04,22,17,38,12.20
2013,04,22,17,39,12.20
2013,04,22,17,40,12.10
2013,04,22,17,41,12.10
2013,04,22,17,42,12.00
2013,04,22,17,43,12.00
2013,04,22,17,44,11.90
2013,04,22,17,45,11.90